Time[GMT],significant_wave_height[m](0m),dominant_wave_period[s](0m)
2011-10-08 15:00, 0.40,2.7
2011-10-08 15:30, 0.27,3.6
2011-10-08 16:00, 0.25,3.6
2011-10-08 16:30, 0.25,2.7
2011-10-08 17:00, 0.23,3.2
2011-10-08 17:30, 0.28,6.4
2011-10-08 18:00, 0.28,6.4
2011-10-08 18:30, 0.27,5.3
2011-10-08 19:00, 0.26,6.4
2011-10-08 19:30, 0.20,2.9
2011-10-08 20:00, 0.28,6.4
2011-10-08 20:30, 0.25,5.3
2011-10-08 21:00, 0.32,5.3
2011-10-08 21:30, 0.23,5.3
2011-10-08 22:00, 0.32,10.7
2011-10-08 22:30, 0.30,6.4
2011-10-08 23:00, 0.19,5.3
2011-10-08 23:30, 0.21,5.3
2011-10-09 00:00, 0.11,2.7
2011-10-09 00:30, 0.27,10.7
2011-10-09 01:00, 0.16,5.3
2011-10-09 01:30, 0.14,5.3
2011-10-09 02:00, 0.29,10.7
2011-10-09 02:30,,
2011-10-09 03:00, 0.12,1.5
2011-10-09 03:30, 0.29,10.7
2011-10-09 04:00, 0.16,1.9
2011-10-09 04:30, 0.18,2.0
2011-10-09 05:00, 0.28,8.0
2011-10-09 05:30, 0.18,1.8
2011-10-09 06:00, 0.32,10.7
2011-10-09 06:30, 0.28,8.0
2011-10-09 07:00, 0.30,10.7
2011-10-09 07:30, 0.18,1.8
2011-10-09 08:00, 0.30,8.0
2011-10-09 08:30, 0.29,8.0
2011-10-09 09:00, 0.29,8.0
2011-10-09 09:30, 0.35,16.0
2011-10-09 10:00, 0.22,2.0
2011-10-09 10:30, 0.27,2.3
2011-10-09 11:00, 0.37,2.3
2011-10-09 11:30, 0.27,2.3
2011-10-09 12:00, 0.31,2.5
2011-10-09 12:30, 0.33,2.5
2011-10-09 13:00, 0.35,2.3
2011-10-09 13:30, 0.36,2.5
2011-10-09 14:00, 0.33,2.3
2011-10-09 14:30, 0.31,2.3
2011-10-09 15:00, 0.29,2.3
2011-10-09 15:30, 0.28,2.1
2011-10-09 16:00, 0.27,2.1
2011-10-09 16:30, 0.25,2.1
2011-10-09 17:00, 0.25,1.9
2011-10-09 17:30, 0.27,6.4
2011-10-09 18:00, 0.31,8.0
2011-10-09 18:30, 0.26,2.7
2011-10-09 19:00, 0.24,2.0
2011-10-09 19:30, 0.18,2.1
2011-10-09 20:00, 0.30,6.4
2011-10-09 20:30, 0.22,2.7
2011-10-09 21:00, 0.20,4.6
2011-10-09 21:30, 0.17,2.5
2011-10-09 22:00, 0.17,2.0
2011-10-09 22:30, 0.16,2.1
2011-10-09 23:00, 0.29,5.3
2011-10-09 23:30, 0.25,10.7
2011-10-10 00:00, 0.19,2.9
2011-10-10 00:30, 0.18,5.3
2011-10-10 01:00, 0.16,4.6
2011-10-10 01:30, 0.13,2.7
2011-10-10 02:00, 0.17,2.9
2011-10-10 02:30, 0.14,2.5
2011-10-10 03:00, 0.14,5.3
2011-10-10 03:30, 0.13,1.8
2011-10-10 04:00, 0.25,10.7
2011-10-10 04:30, 0.18,1.9
2011-10-10 05:00, 0.21,2.0
2011-10-10 05:30, 0.19,2.0
2011-10-10 06:00, 0.23,2.1
2011-10-10 06:30, 0.22,1.9
2011-10-10 07:00, 0.33,8.0
2011-10-10 07:30, 0.27,2.1
2011-10-10 08:00, 0.30,1.9
2011-10-10 08:30, 0.41,2.5
2011-10-10 09:00, 0.35,2.3
2011-10-10 09:30, 0.31,2.3
2011-10-10 10:00, 0.29,2.3
2011-10-10 10:30, 0.28,2.3
2011-10-10 11:00, 0.32,2.3
2011-10-10 11:30, 0.28,2.3
2011-10-10 12:00, 0.28,2.3
2011-10-10 12:30, 0.24,2.1
2011-10-10 13:00, 0.27,2.1
2011-10-10 13:30, 0.27,2.1
2011-10-10 14:00, 0.32,2.1
2011-10-10 14:30, 0.28,2.1
2011-10-10 15:00, 0.27,2.0
2011-10-10 15:30, 0.23,2.1
2011-10-10 16:00, 0.28,2.5
2011-10-10 16:30, 0.28,2.3
2011-10-10 17:00, 0.23,2.1
2011-10-10 17:30, 0.19,2.0
2011-10-10 18:00, 0.19,1.9
2011-10-10 18:30, 0.19,5.3
2011-10-10 19:00, 0.20,2.5
2011-10-10 19:30, 0.21,4.6
2011-10-10 20:00, 0.18,2.0
2011-10-10 20:30, 0.18,1.9
2011-10-10 21:00, 0.21,10.7
2011-10-10 21:30, 0.20,2.0
2011-10-10 22:00, 0.21,2.0
2011-10-10 22:30, 0.22,8.0
2011-10-10 23:00, 0.17,1.9
2011-10-10 23:30, 0.16,2.0
2011-10-11 00:00, 0.18,10.7
2011-10-11 00:30, 0.14,4.6
2011-10-11 01:00, 0.15,1.7
2011-10-11 01:30, 0.22,5.3
2011-10-11 02:00, 0.21,1.9
2011-10-11 02:30, 0.27,2.1
2011-10-11 03:00, 0.26,2.3
2011-10-11 03:30, 0.21,2.0
2011-10-11 04:00, 0.23,2.1
2011-10-11 04:30, 0.23,2.3
2011-10-11 05:00, 0.29,2.7
2011-10-11 05:30, 0.34,2.9
2011-10-11 06:00, 0.40,2.9
2011-10-11 06:30, 0.35,2.9
2011-10-11 07:00, 0.41,3.2
2011-10-11 07:30, 0.48,3.6
2011-10-11 08:00, 0.45,3.6
2011-10-11 08:30, 0.40,3.6
2011-10-11 09:00, 0.43,4.0
2011-10-11 09:30, 0.46,4.0
2011-10-11 10:00, 0.47,3.6
2011-10-11 10:30, 0.47,4.0
2011-10-11 11:00, 0.56,3.6
2011-10-11 11:30, 0.58,2.9
2011-10-11 12:00, 0.60,3.6
2011-10-11 12:30, 0.65,3.6
2011-10-11 13:00, 0.62,3.6
2011-10-11 13:30, 0.55,3.6
2011-10-11 14:00, 0.62,3.6
2011-10-11 14:30, 0.65,4.0
2011-10-11 15:00, 0.64,3.6
2011-10-11 15:30, 0.59,3.6
2011-10-11 16:00, 0.57,4.6
2011-10-11 16:30, 0.61,4.0
2011-10-11 17:00, 0.55,4.0
2011-10-11 17:30, 0.60,4.0
2011-10-11 18:00, 0.58,4.0
2011-10-11 18:30, 0.55,4.0
2011-10-11 19:00, 0.58,4.0
2011-10-11 19:30, 0.52,4.0
2011-10-11 20:00, 0.51,4.0
2011-10-11 20:30, 0.55,4.0
2011-10-11 21:00, 0.51,4.0
2011-10-11 21:30, 0.54,4.0
2011-10-11 22:00, 0.53,4.0
2011-10-11 22:30, 0.55,4.0
2011-10-11 23:00, 0.55,4.0
2011-10-11 23:30, 0.50,4.6
2011-10-12 00:00, 0.55,4.0
2011-10-12 00:30, 0.48,4.6
2011-10-12 01:00, 0.53,4.0
2011-10-12 01:30, 0.52,4.6
2011-10-12 02:00, 0.56,4.6
2011-10-12 02:30, 0.55,4.6
2011-10-12 03:00, 0.52,4.6
2011-10-12 03:30, 0.53,4.6
2011-10-12 04:00, 0.51,4.6
2011-10-12 04:30, 0.53,4.6
2011-10-12 05:00, 0.57,4.6
2011-10-12 05:30, 0.54,4.6
2011-10-12 06:00, 0.58,3.2
2011-10-12 06:30, 0.62,4.6
2011-10-12 07:00, 0.54,3.6
2011-10-12 07:30, 0.65,3.2
2011-10-12 08:00, 0.69,4.0
2011-10-12 08:30, 0.70,3.6
2011-10-12 09:00, 0.62,4.6
2011-10-12 09:30, 0.68,4.6
2011-10-12 10:00, 0.70,4.0
2011-10-12 10:30, 0.71,4.0
2011-10-12 11:00, 0.64,4.0
2011-10-12 11:30, 0.63,4.0
2011-10-12 12:00, 0.66,3.6
2011-10-12 12:30, 0.62,4.0
2011-10-12 13:00, 0.73,4.0
2011-10-12 13:30, 0.67,4.0
2011-10-12 14:00, 0.68,4.0
2011-10-12 14:30, 0.62,3.6
2011-10-12 15:00, 0.16,2.5
2011-10-12 15:30, 0.56,3.6
2011-10-12 16:00, 0.67,10.7
2011-10-12 16:30, 0.52,4.0
2011-10-12 17:00, 0.57,4.0
2011-10-12 17:30, 0.54,4.0
2011-10-12 18:00, 0.56,4.0
2011-10-12 18:30, 0.59,4.0
2011-10-12 19:00, 0.52,2.9
2011-10-12 19:30, 0.54,4.0
2011-10-12 20:00, 0.59,4.0
2011-10-12 20:30, 0.58,4.6
2011-10-12 21:00, 0.65,4.6
2011-10-12 21:30, 0.85,4.6
2011-10-12 22:00, 0.86,4.0
2011-10-12 22:30, 1.06,4.6
2011-10-12 23:00, 1.05,4.6
2011-10-12 23:30, 1.08,5.3
2011-10-13 00:00, 1.19,5.3
2011-10-13 00:30, 1.26,5.3
2011-10-13 01:00, 1.42,5.3
2011-10-13 01:30, 1.41,5.3
2011-10-13 02:00, 1.39,5.3
2011-10-13 02:30, 1.52,5.3
2011-10-13 03:00, 1.72,6.4
2011-10-13 03:30, 1.45,5.3
2011-10-13 04:00, 1.62,6.4
2011-10-13 04:30, 1.72,5.3
2011-10-13 05:00, 1.62,6.4
2011-10-13 05:30, 1.57,6.4
2011-10-13 06:00, 1.55,6.4
2011-10-13 06:30, 1.74,6.4
2011-10-13 07:00, 1.59,6.4
2011-10-13 07:30, 1.72,6.4
2011-10-13 08:00, 1.66,6.4
2011-10-13 08:30, 1.92,6.4
2011-10-13 09:00, 2.01,6.4
2011-10-13 09:30, 1.94,8.0
2011-10-13 10:00, 2.06,6.4
2011-10-13 10:30, 1.78,5.3
2011-10-13 11:00, 2.07,8.0
2011-10-13 11:30, 2.01,6.4
2011-10-13 12:00, 1.99,6.4
2011-10-13 12:30, 2.03,6.4
2011-10-13 13:00, 1.77,6.4
2011-10-13 13:30, 1.85,6.4
2011-10-13 14:00, 1.60,6.4
2011-10-13 14:30, 1.74,6.4
2011-10-13 15:00, 1.48,6.4
2011-10-13 15:30, 1.61,5.3
2011-10-13 16:00, 1.56,6.4
2011-10-13 16:30, 1.66,6.4
2011-10-13 17:00, 1.57,6.4
2011-10-13 17:30, 1.70,6.4
2011-10-13 18:00, 1.51,6.4
2011-10-13 18:30, 1.67,8.0
2011-10-13 19:00, 1.61,6.4
2011-10-13 19:30, 1.60,8.0
2011-10-13 20:00, 1.76,8.0
2011-10-13 20:30, 1.62,8.0
2011-10-13 21:00, 1.61,8.0
2011-10-13 21:30, 1.54,6.4
2011-10-13 22:00, 1.52,8.0
2011-10-13 22:30, 1.55,8.0
2011-10-13 23:00, 1.37,8.0
2011-10-13 23:30, 1.72,8.0
2011-10-14 00:00, 1.42,8.0
2011-10-14 00:30, 1.58,8.0
2011-10-14 01:00, 1.58,8.0
2011-10-14 01:30, 1.42,6.4
2011-10-14 02:00, 1.43,8.0
2011-10-14 02:30, 1.39,8.0
2011-10-14 03:00, 1.34,6.4
2011-10-14 03:30, 1.42,8.0
2011-10-14 04:00, 1.50,8.0
2011-10-14 04:30, 1.51,8.0
2011-10-14 05:00, 1.38,8.0
2011-10-14 05:30, 1.31,8.0
2011-10-14 06:00, 1.33,6.4
2011-10-14 06:30, 1.42,8.0
2011-10-14 07:00, 1.34,8.0
2011-10-14 07:30, 1.45,6.4
2011-10-14 08:00, 1.55,8.0
2011-10-14 08:30, 1.44,8.0
2011-10-14 09:00, 1.72,8.0
2011-10-14 09:30, 1.80,8.0
2011-10-14 10:00, 1.60,8.0
2011-10-14 10:30, 1.64,8.0
2011-10-14 11:00, 1.56,8.0
2011-10-14 11:30, 1.53,8.0
2011-10-14 12:00, 1.48,8.0
2011-10-14 12:30, 1.40,6.4
2011-10-14 13:00, 1.43,6.4
2011-10-14 13:30, 1.36,6.4
2011-10-14 14:00, 1.25,6.4
2011-10-14 14:30, 1.32,6.4
2011-10-14 15:00, 1.27,6.4
2011-10-14 15:30, 1.28,6.4
2011-10-14 16:00, 1.21,6.4
2011-10-14 16:30, 1.15,8.0
2011-10-14 17:00, 1.20,6.4
2011-10-14 17:30, 1.20,8.0
2011-10-14 18:00, 1.16,8.0
2011-10-14 18:30, 1.25,8.0
2011-10-14 19:00, 1.27,8.0
2011-10-14 19:30, 1.13,6.4
2011-10-14 20:00, 1.22,8.0
2011-10-14 20:30, 1.28,8.0
2011-10-14 21:00, 1.25,8.0
2011-10-14 21:30, 1.20,8.0
2011-10-14 22:00, 1.15,8.0
2011-10-14 22:30, 1.18,8.0
2011-10-14 23:00, 1.48,8.0
2011-10-14 23:30, 1.16,8.0
2011-10-15 00:00, 1.24,8.0
2011-10-15 00:30, 1.23,8.0
2011-10-15 01:00, 1.22,8.0
2011-10-15 01:30, 1.26,6.4
2011-10-15 02:00, 1.19,6.4
2011-10-15 02:30, 1.19,6.4
2011-10-15 03:00, 1.10,8.0
2011-10-15 03:30, 1.09,8.0
2011-10-15 04:00, 1.14,6.4
2011-10-15 04:30, 1.13,6.4
2011-10-15 05:00, 1.36,3.6
2011-10-15 05:30, 1.29,4.0
2011-10-15 06:00, 1.52,4.0
2011-10-15 06:30, 1.64,4.6
2011-10-15 07:00, 1.77,4.6
2011-10-15 07:30, 1.56,4.6
2011-10-15 08:00, 1.71,4.6
2011-10-15 08:30, 1.67,4.6
2011-10-15 09:00, 1.44,4.6
2011-10-15 09:30, 1.41,4.6
2011-10-15 10:00, 1.45,5.3
2011-10-15 10:30, 1.33,4.6
2011-10-15 11:00, 1.76,8.0
2011-10-15 11:30, 1.48,4.6
2011-10-15 12:00, 1.46,4.6
2011-10-15 12:30, 1.35,4.6
2011-10-15 13:00, 1.77,4.6
2011-10-15 13:30, 1.52,5.3
2011-10-15 14:00, 1.68,4.6
2011-10-15 14:30, 1.68,5.3
2011-10-15 15:00, 1.41,4.6
2011-10-15 15:30, 1.34,4.6
2011-10-15 16:00, 1.29,4.6
2011-10-15 16:30, 1.13,4.6
2011-10-15 17:00, 1.75,4.6
2011-10-15 17:30, 1.64,4.6
2011-10-15 18:00, 1.68,4.6
2011-10-15 18:30, 1.39,4.6
2011-10-15 19:00, 1.71,4.6
2011-10-15 19:30, 2.09,10.7
2011-10-15 20:00,,
2011-10-15 20:30, 1.35,4.6
2011-10-15 21:00, 1.80,10.7
2011-10-15 21:30, 1.93,10.7
2011-10-15 22:00, 1.98,10.7
2011-10-15 22:30, 1.89,10.7
2011-10-15 23:00, 1.80,8.0
2011-10-15 23:30, 1.60,8.0
2011-10-16 00:00, 1.65,8.0
2011-10-16 00:30, 1.81,8.0
2011-10-16 01:00, 1.36,4.6
2011-10-16 01:30, 1.64,4.6
2011-10-16 02:00, 1.67,4.6
2011-10-16 02:30, 1.69,4.6
2011-10-16 03:00, 1.71,4.6
2011-10-16 03:30, 1.77,5.3
2011-10-16 04:00, 1.81,5.3
2011-10-16 04:30, 1.61,4.6
2011-10-16 05:00, 1.63,4.6
2011-10-16 05:30, 1.43,4.6
2011-10-16 06:00, 1.68,4.6
2011-10-16 06:30, 1.37,4.6
2011-10-16 07:00, 1.26,4.6
2011-10-16 07:30, 1.24,4.6
2011-10-16 08:00, 1.46,4.6
2011-10-16 08:30, 1.25,4.6
2011-10-16 09:00, 1.06,4.0
2011-10-16 09:30, 1.14,4.0
2011-10-16 10:00, 1.02,4.0
2011-10-16 10:30, 1.06,4.0
2011-10-16 11:00, 1.50,4.0
2011-10-16 11:30, 1.12,4.0
2011-10-16 12:00, 1.44,4.0
2011-10-16 12:30, 1.09,4.0
2011-10-16 13:00, 1.17,4.0
2011-10-16 13:30, 1.27,4.6
2011-10-16 14:00, 1.30,4.6
2011-10-16 14:30, 1.27,4.6
2011-10-16 15:00, 1.49,4.6
2011-10-16 15:30, 1.14,4.6
2011-10-16 16:00, 1.15,4.6
2011-10-16 16:30, 1.04,4.6
2011-10-16 17:00, 1.13,4.0
2011-10-16 17:30, 1.05,4.6
2011-10-16 18:00, 1.12,4.6
2011-10-16 18:30, 1.13,4.6
2011-10-16 19:00, 1.13,4.6
2011-10-16 19:30, 1.04,4.6
2011-10-16 20:00, 0.93,4.0
2011-10-16 20:30, 0.91,4.0
2011-10-16 21:00, 0.86,4.0
2011-10-16 21:30, 0.74,3.6
2011-10-16 22:00, 0.70,3.6
2011-10-16 22:30, 0.71,3.6
2011-10-16 23:00, 0.93,8.0
2011-10-16 23:30, 0.75,3.6
2011-10-17 00:00, 0.64,3.2
2011-10-17 00:30, 0.72,3.2
2011-10-17 01:00, 0.79,3.6
2011-10-17 01:30, 0.85,3.6
2011-10-17 02:00, 0.92,4.0
2011-10-17 02:30, 0.93,3.6
2011-10-17 03:00, 0.93,3.6
2011-10-17 03:30, 0.95,4.0
2011-10-17 04:00, 0.90,3.6
2011-10-17 04:30, 0.86,3.6
2011-10-17 05:00, 0.82,4.0
2011-10-17 05:30, 0.82,4.0
2011-10-17 06:00, 0.78,4.6
2011-10-17 06:30, 0.91,3.6
2011-10-17 07:00, 0.92,4.6
2011-10-17 07:30, 1.13,3.2
2011-10-17 08:00, 1.22,4.6
2011-10-17 08:30, 1.20,4.6
2011-10-17 09:00, 1.15,5.3
2011-10-17 09:30, 1.15,4.6
2011-10-17 10:00, 1.09,4.0
2011-10-17 10:30, 1.03,3.6
2011-10-17 11:00, 0.97,3.2
2011-10-17 11:30, 0.92,3.6
2011-10-17 12:00, 0.85,3.6
2011-10-17 12:30, 0.81,3.6
2011-10-17 13:00, 0.74,3.6
2011-10-17 13:30, 0.71,3.2
2011-10-17 14:00, 0.66,3.2
2011-10-17 14:30, 0.72,3.2
2011-10-17 15:00, 0.73,3.2
2011-10-17 15:30, 0.76,3.2
2011-10-17 16:00, 0.88,3.6
2011-10-17 16:30, 0.97,3.6
2011-10-17 17:00, 0.83,3.6
2011-10-17 17:30, 0.88,4.0
2011-10-17 18:00, 0.84,4.0
2011-10-17 18:30, 0.85,4.0
2011-10-17 19:00, 0.75,3.6
2011-10-17 19:30, 0.81,3.6
2011-10-17 20:00, 0.62,3.6
2011-10-17 20:30, 0.65,3.6
2011-10-17 21:00, 0.58,3.6
2011-10-17 21:30, 0.65,3.6
2011-10-17 22:00, 0.51,3.2
2011-10-17 22:30, 0.40,3.2
2011-10-17 23:00, 0.38,3.2
2011-10-17 23:30, 0.35,2.9
2011-10-18 00:00, 0.43,8.0
2011-10-18 00:30, 0.48,8.0
2011-10-18 01:00, 0.42,2.5
2011-10-18 01:30, 0.75,8.0
2011-10-18 02:00, 0.66,2.9
2011-10-18 02:30, 0.84,3.6
2011-10-18 03:00, 1.03,3.6
2011-10-18 03:30, 1.01,3.6
2011-10-18 04:00, 1.08,4.0
2011-10-18 04:30, 0.99,3.6
2011-10-18 05:00, 1.02,4.0
2011-10-18 05:30, 1.08,4.0
2011-10-18 06:00, 1.10,3.6
2011-10-18 06:30, 1.04,4.0
2011-10-18 07:00, 0.89,4.0
2011-10-18 07:30, 0.95,4.0
2011-10-18 08:00, 0.86,3.6
2011-10-18 08:30, 0.85,3.6
2011-10-18 09:00, 0.77,3.6
2011-10-18 09:30, 0.64,3.6
2011-10-18 10:00, 0.63,3.6
2011-10-18 10:30, 0.58,3.2
2011-10-18 11:00, 0.63,2.9
2011-10-18 11:30, 0.50,2.7
2011-10-18 12:00, 0.56,2.9
2011-10-18 12:30, 0.57,2.9
2011-10-18 13:00, 0.52,2.9
2011-10-18 13:30, 0.80,3.2
2011-10-18 14:00, 0.65,3.2
2011-10-18 14:30, 0.55,2.9
2011-10-18 15:00, 0.55,3.6
2011-10-18 15:30, 0.54,3.2
2011-10-18 16:00, 0.52,3.2
2011-10-18 16:30, 0.67,3.2
2011-10-18 17:00, 0.55,6.4
2011-10-18 17:30, 0.57,8.0
2011-10-18 18:00, 0.31,2.7
2011-10-18 18:30, 0.47,6.4
2011-10-18 19:00, 0.25,2.5
2011-10-18 19:30, 0.35,5.3
2011-10-18 20:00, 0.47,8.0
2011-10-18 20:30, 0.46,6.4
2011-10-18 21:00, 0.46,10.7
2011-10-18 21:30, 0.43,8.0
2011-10-18 22:00, 0.45,10.7
2011-10-18 22:30, 0.39,8.0
2011-10-18 23:00, 0.41,8.0
2011-10-18 23:30, 0.41,8.0
2011-10-19 00:00, 0.39,8.0
2011-10-19 00:30, 0.15,2.5
2011-10-19 01:00, 0.37,8.0
2011-10-19 01:30, 0.52,10.7
2011-10-19 02:00, 0.47,8.0
2011-10-19 02:30, 0.47,8.0
2011-10-19 03:00, 0.29,2.3
2011-10-19 03:30, 0.50,8.0
2011-10-19 04:00, 0.38,2.7
2011-10-19 04:30, 0.45,2.7
2011-10-19 05:00, 0.68,8.0
2011-10-19 05:30, 0.46,3.2
2011-10-19 06:00, 0.47,3.2
2011-10-19 06:30, 0.43,2.9
2011-10-19 07:00, 0.46,2.9
2011-10-19 07:30, 0.41,2.9
2011-10-19 08:00, 0.49,6.4
2011-10-19 08:30, 0.55,8.0
2011-10-19 09:00, 0.47,2.9
2011-10-19 09:30, 0.49,3.2
2011-10-19 10:00, 0.55,3.2
2011-10-19 10:30, 0.75,8.0
2011-10-19 11:00, 0.59,3.2
2011-10-19 11:30, 0.77,4.0
2011-10-19 12:00, 0.89,4.0
2011-10-19 12:30, 0.96,4.0
2011-10-19 13:00, 0.88,3.6
2011-10-19 13:30, 1.09,4.0
2011-10-19 14:00, 0.97,4.0
2011-10-19 14:30, 1.06,4.0
2011-10-19 15:00, 0.94,4.6
2011-10-19 15:30, 1.03,4.0
2011-10-19 16:00, 1.25,4.6
2011-10-19 16:30, 1.43,4.6
2011-10-19 17:00, 1.38,4.6
2011-10-19 17:30, 1.56,4.6
2011-10-19 18:00, 1.68,5.3
2011-10-19 18:30, 1.69,5.3
2011-10-19 19:00, 1.90,5.3
2011-10-19 19:30, 1.82,6.4
2011-10-19 20:00, 1.76,6.4
2011-10-19 20:30, 2.16,6.4
2011-10-19 21:00, 2.12,6.4
2011-10-19 21:30, 1.97,6.4
2011-10-19 22:00, 1.93,6.4
2011-10-19 22:30, 2.32,6.4
2011-10-19 23:00, 2.12,5.3
2011-10-19 23:30, 2.44,6.4
2011-10-20 00:00, 2.75,8.0
2011-10-20 00:30, 2.77,6.4
2011-10-20 01:00, 2.62,6.4
2011-10-20 01:30, 2.70,8.0
2011-10-20 02:00, 2.63,8.0
2011-10-20 02:30, 2.71,8.0
2011-10-20 03:00, 3.29,8.0
2011-10-20 03:30, 3.04,8.0
2011-10-20 04:00, 2.70,8.0
2011-10-20 04:30, 2.52,8.0
2011-10-20 05:00, 2.62,8.0
2011-10-20 05:30, 2.37,8.0
2011-10-20 06:00, 2.57,8.0
2011-10-20 06:30, 2.47,8.0
2011-10-20 07:00, 2.61,8.0
2011-10-20 07:30, 2.52,8.0
2011-10-20 08:00, 2.42,6.4
2011-10-20 08:30, 2.64,8.0
2011-10-20 09:00, 2.06,8.0
2011-10-20 09:30, 2.23,8.0
2011-10-20 10:00, 2.27,8.0
2011-10-20 10:30, 1.88,6.4
2011-10-20 11:00, 2.13,8.0
2011-10-20 11:30, 2.14,8.0
2011-10-20 12:00, 2.08,8.0
2011-10-20 12:30, 2.03,8.0
2011-10-20 13:00, 2.03,8.0
2011-10-20 13:30, 2.15,8.0
2011-10-20 14:00, 2.24,8.0
2011-10-20 14:30, 2.09,8.0
2011-10-20 15:00, 2.02,8.0
2011-10-20 15:30, 2.08,8.0
2011-10-20 16:00, 1.79,8.0
2011-10-20 16:30, 1.79,8.0
2011-10-20 17:00, 1.70,8.0
2011-10-20 17:30, 1.45,6.4
2011-10-20 18:00, 1.56,6.4
2011-10-20 18:30, 1.88,8.0
2011-10-20 19:00, 1.78,8.0
2011-10-20 19:30, 1.80,6.4
2011-10-20 20:00, 2.00,8.0
2011-10-20 20:30, 1.77,5.3
2011-10-20 21:00, 1.99,6.4
2011-10-20 21:30, 1.76,5.3
2011-10-20 22:00, 2.13,5.3
2011-10-20 22:30, 1.89,6.4
2011-10-20 23:00, 2.17,6.4
2011-10-20 23:30, 1.66,5.3
2011-10-21 00:00, 2.10,6.4
2011-10-21 00:30, 1.59,5.3
2011-10-21 01:00, 2.11,10.7
2011-10-21 01:30, 2.08,10.7
2011-10-21 02:00, 1.98,10.7
2011-10-21 02:30, 1.72,5.3
2011-10-21 03:00, 1.30,5.3
2011-10-21 03:30, 1.14,4.6
2011-10-21 04:00, 1.89,10.7
2011-10-21 04:30, 1.71,10.7
2011-10-21 05:00,,
2011-10-21 05:30, 1.83,10.7
2011-10-21 06:00,,
2011-10-21 06:30, 1.09,4.0
2011-10-21 07:00, 1.81,10.7
2011-10-21 07:30,,
2011-10-21 08:00, 1.60,10.7
2011-10-21 08:30,,
2011-10-21 09:00, 1.80,10.7
2011-10-21 09:30,,
2011-10-21 10:00, 1.55,10.7
2011-10-21 10:30,,
2011-10-21 11:00, 1.53,10.7
2011-10-21 11:30, 1.58,10.7
2011-10-21 12:00, 1.75,10.7
2011-10-21 12:30, 2.01,10.7
2011-10-21 13:00, 1.70,10.7
2011-10-21 13:30,,
2011-10-21 14:00, 1.76,10.7
2011-10-21 14:30,,
2011-10-21 15:00, 1.83,10.7
2011-10-21 15:30,,
2011-10-21 16:00, 1.56,10.7
2011-10-21 16:30,,
2011-10-21 17:00, 1.40,10.7
2011-10-21 17:30,,
2011-10-21 18:00, 1.30,10.7
2011-10-21 18:30, 1.20,10.7
2011-10-21 19:00,,
2011-10-21 19:30, 1.06,10.7
2011-10-21 20:00, 1.22,10.7
2011-10-21 20:30, 1.04,10.7
2011-10-21 21:00, 0.90,10.7
2011-10-21 21:30, 0.88,10.7
2011-10-21 22:00, 0.93,10.7
2011-10-21 22:30, 0.93,10.7
2011-10-21 23:00, 1.02,10.7
2011-10-21 23:30, 0.95,10.7
2011-10-22 00:00, 1.16,10.7
2011-10-22 00:30, 0.90,10.7
2011-10-22 01:00, 0.89,10.7
2011-10-22 01:30, 0.98,10.7
2011-10-22 02:00, 0.99,10.7
2011-10-22 02:30, 1.05,10.7
2011-10-22 03:00, 1.12,10.7
2011-10-22 03:30, 1.05,10.7
2011-10-22 04:00, 1.08,10.7
2011-10-22 04:30, 1.06,10.7
2011-10-22 05:00, 1.01,10.7
2011-10-22 05:30, 1.01,10.7
2011-10-22 06:00, 1.14,10.7
2011-10-22 06:30, 0.84,10.7
2011-10-22 07:00, 0.74,8.0
2011-10-22 07:30, 0.84,10.7
2011-10-22 08:00, 0.89,10.7
2011-10-22 08:30, 0.68,8.0
2011-10-22 09:00, 0.80,10.7
2011-10-22 09:30,,
2011-10-22 10:00, 0.70,10.7
2011-10-22 10:30, 0.86,10.7
2011-10-22 11:00, 0.73,10.7
2011-10-22 11:30, 0.65,10.7
2011-10-22 12:00, 0.65,8.0
2011-10-22 12:30, 0.74,10.7
2011-10-22 13:00, 0.81,10.7
2011-10-22 13:30, 0.82,10.7
2011-10-22 14:00, 0.60,8.0
2011-10-22 14:30, 0.63,8.0
2011-10-22 15:00, 0.81,10.7
2011-10-22 15:30, 0.76,10.7
2011-10-22 16:00, 0.64,8.0
2011-10-22 16:30, 0.68,8.0
2011-10-22 17:00, 0.67,10.7
2011-10-22 17:30, 0.69,8.0
2011-10-22 18:00, 0.65,8.0
2011-10-22 18:30, 0.62,10.7
2011-10-22 19:00, 0.62,8.0
2011-10-22 19:30, 0.64,10.7
2011-10-22 20:00, 0.67,10.7
2011-10-22 20:30, 0.65,8.0
2011-10-22 21:00,,
2011-10-22 21:30, 0.40,2.9
2011-10-22 22:00, 0.43,2.9
2011-10-22 22:30, 0.66,8.0
2011-10-22 23:00, 0.48,2.9
2011-10-22 23:30, 0.44,2.9
2011-10-23 00:00, 0.42,2.9
2011-10-23 00:30, 0.38,2.5
2011-10-23 01:00, 0.54,8.0
2011-10-23 01:30, 0.64,8.0
2011-10-23 02:00, 0.60,8.0
2011-10-23 02:30, 0.70,8.0
2011-10-23 03:00, 0.44,2.5
2011-10-23 03:30, 0.43,2.3
2011-10-23 04:00, 0.59,8.0
2011-10-23 04:30, 0.63,8.0
2011-10-23 05:00, 0.55,8.0
2011-10-23 05:30, 0.56,8.0
2011-10-23 06:00, 0.53,8.0
2011-10-23 06:30, 0.50,8.0
2011-10-23 07:00, 0.52,8.0
2011-10-23 07:30, 0.46,6.4
2011-10-23 08:00, 0.54,8.0
2011-10-23 08:30, 0.56,8.0
2011-10-23 09:00, 0.51,8.0
2011-10-23 09:30, 0.57,8.0
2011-10-23 10:00, 0.55,8.0
2011-10-23 10:30, 0.38,2.9
2011-10-23 11:00, 0.51,8.0
2011-10-23 11:30, 0.47,8.0
2011-10-23 12:00, 0.30,2.3
2011-10-23 12:30, 0.30,2.5
2011-10-23 13:00, 0.42,8.0
2011-10-23 13:30, 0.37,8.0
2011-10-23 14:00, 0.38,8.0
2011-10-23 14:30, 0.38,8.0
2011-10-23 15:00, 0.42,8.0
2011-10-23 15:30, 0.44,8.0
2011-10-23 16:00, 0.44,8.0
2011-10-23 16:30, 0.39,8.0
2011-10-23 17:00, 0.43,8.0
2011-10-23 17:30, 0.40,8.0
2011-10-23 18:00, 0.37,8.0
2011-10-23 18:30, 0.40,10.7
2011-10-23 19:00, 0.38,8.0
2011-10-23 19:30, 0.44,8.0
2011-10-23 20:00, 0.35,8.0
2011-10-23 20:30, 0.49,8.0
2011-10-23 21:00, 0.47,8.0
2011-10-23 21:30, 0.42,8.0
2011-10-23 22:00, 0.46,8.0
2011-10-23 22:30, 0.44,8.0
2011-10-23 23:00, 0.43,8.0
2011-10-23 23:30, 0.42,8.0
2011-10-24 00:00, 0.47,6.4
2011-10-24 00:30, 0.41,8.0
2011-10-24 01:00, 0.43,8.0
2011-10-24 01:30, 0.50,10.7
2011-10-24 02:00, 0.40,8.0
2011-10-24 02:30, 0.35,8.0
2011-10-24 03:00, 0.40,8.0
2011-10-24 03:30, 0.48,8.0
2011-10-24 04:00, 0.35,8.0
2011-10-24 04:30, 0.39,8.0
2011-10-24 05:00, 0.39,8.0
2011-10-24 05:30, 0.43,8.0
2011-10-24 06:00, 0.45,8.0
2011-10-24 06:30, 0.45,8.0
2011-10-24 07:00, 0.42,8.0
2011-10-24 07:30, 0.41,8.0
2011-10-24 08:00, 0.44,8.0
2011-10-24 08:30, 0.44,8.0
2011-10-24 09:00, 0.44,8.0
2011-10-24 09:30, 0.41,8.0
2011-10-24 10:00, 0.48,8.0
2011-10-24 10:30, 0.38,8.0
2011-10-24 11:00, 0.38,8.0
2011-10-24 11:30, 0.35,8.0
2011-10-24 12:00, 0.40,10.7
2011-10-24 12:30,,
2011-10-24 13:00, 0.44,8.0
2011-10-24 13:30, 0.44,8.0
2011-10-24 14:00, 0.42,10.7
2011-10-24 14:30,,
2011-10-24 15:00, 0.50,10.7
2011-10-24 15:30,,
2011-10-24 16:00, 0.29,2.1
2011-10-24 16:30, 0.29,2.1
2011-10-24 17:00, 0.36,2.3
2011-10-24 17:30, 0.62,8.0
2011-10-24 18:00, 0.55,8.0
2011-10-24 18:30, 0.62,8.0
2011-10-24 19:00, 0.44,2.7
2011-10-24 19:30, 0.50,2.9
2011-10-24 20:00, 0.53,2.9
2011-10-24 20:30, 0.74,8.0
2011-10-24 21:00, 0.62,3.2
2011-10-24 21:30, 0.66,3.2
2011-10-24 22:00, 0.80,3.6
2011-10-24 22:30, 0.79,3.6
2011-10-24 23:00, 0.76,3.6
2011-10-24 23:30, 0.82,4.0
2011-10-25 00:00, 0.85,4.0
2011-10-25 00:30, 0.84,4.0
2011-10-25 01:00, 0.90,4.6
2011-10-25 01:30, 0.87,4.0
2011-10-25 02:00, 0.88,4.6
2011-10-25 02:30, 0.84,4.0
2011-10-25 03:00, 0.75,4.0
2011-10-25 03:30, 0.76,4.0
2011-10-25 04:00, 0.63,4.0
2011-10-25 04:30, 0.69,4.0
2011-10-25 05:00, 0.71,8.0
2011-10-25 05:30, 0.79,8.0
2011-10-25 06:00, 0.61,2.5
2011-10-25 06:30, 0.82,8.0
2011-10-25 07:00, 0.55,2.9
2011-10-25 07:30, 0.50,2.9
2011-10-25 08:00, 0.45,3.2
2011-10-25 08:30, 0.69,8.0
2011-10-25 09:00, 0.41,2.7
2011-10-25 09:30, 0.50,2.9
2011-10-25 10:00, 0.46,3.2
2011-10-25 10:30, 0.44,3.2
2011-10-25 11:00, 0.70,8.0
2011-10-25 11:30, 0.50,3.2
2011-10-25 12:00, 0.72,8.0
2011-10-25 12:30, 0.55,3.6
2011-10-25 13:00, 0.60,3.2
2011-10-25 13:30, 0.56,3.2
2011-10-25 14:00, 0.61,3.6
2011-10-25 14:30, 0.61,3.6
2011-10-25 15:00, 0.68,3.6
2011-10-25 15:30, 0.70,3.2
2011-10-25 16:00, 0.69,3.2
2011-10-25 16:30, 0.67,3.2
2011-10-25 17:00, 0.66,3.2
2011-10-25 17:30, 0.63,3.2
2011-10-25 18:00, 0.61,2.9
2011-10-25 18:30, 0.64,2.9
2011-10-25 19:00, 0.61,2.9
2011-10-25 19:30, 0.65,2.9
2011-10-25 20:00, 0.64,3.2
2011-10-25 20:30, 0.60,3.2
2011-10-25 21:00, 0.73,3.2
2011-10-25 21:30, 0.64,3.6
2011-10-25 22:00, 0.57,3.6
2011-10-25 22:30, 0.52,3.2
2011-10-25 23:00, 0.53,2.9
2011-10-25 23:30, 0.52,2.7
2011-10-26 00:00, 0.55,2.9
2011-10-26 00:30, 0.50,2.9
2011-10-26 01:00, 0.54,2.7
2011-10-26 01:30, 0.70,4.6
2011-10-26 02:00, 0.77,4.6
2011-10-26 02:30, 0.82,4.0
2011-10-26 03:00, 0.79,4.6
2011-10-26 03:30, 0.78,4.6
2011-10-26 04:00, 0.76,4.0
2011-10-26 04:30, 0.73,4.6
2011-10-26 05:00, 0.66,2.9
2011-10-26 05:30, 0.67,2.9
2011-10-26 06:00, 0.62,2.9
2011-10-26 06:30, 0.71,2.9
2011-10-26 07:00, 0.83,3.2
2011-10-26 07:30, 0.79,3.6
2011-10-26 08:00, 0.79,3.6
2011-10-26 08:30, 0.66,3.6
2011-10-26 09:00, 0.67,3.6
2011-10-26 09:30, 0.74,3.2
2011-10-26 10:00, 0.63,3.6
2011-10-26 10:30, 0.62,3.6
2011-10-26 11:00, 0.62,3.6